Skip Page Navigation
NASA JPL Caltech
NASA Logo - Jet Propulsion Laboratory + View the NASA Portal
+ Near-Earth Object (NEO) Program
Search JPL
JPL Home Earth Solar System Stars & Galaxies Technology
JPL Solar System Dynamics
BODIES ORBITS EPHEMERIDES TOOLS PHYSICAL DATA DISCOVERY FAQ SITE MAP
JPL Small-Body Database Browser
Search: [ help ]  
20204 Yuudurunosato (1997 EV25)
Classification: Main-belt Asteroid          SPK-ID: 2020204
Ephemeris | Orbit Diagram | Orbital Elements | Physical Parameters | Discovery Circumstances | Close-Approach Data ]

[ show orbit diagram ]
Orbital Elements at Epoch 2457400.5 (2016-Jan-13.0) TDB
Reference: JPL 18 (heliocentric ecliptic J2000)
 Element Value Uncertainty (1-sigma)   Units 
e .04848324940936432 4.4431e-08  
a 2.734604359291355 1.8633e-08 au
q 2.602021854103897 1.2304e-07 au
i 4.241747898021953 5.4537e-06 deg
node 144.2470717166215 7.6118e-05 deg
peri 336.2746140137492 0.00010695 deg
M 111.5559597182231 7.2964e-05 deg
tp 2456888.664439786568
(2014-Aug-19.16443979)
0.00033538 JED
period 1651.73426988801
4.52
1.6882e-05
4.622e-08
d
yr
n .2179527340220461 2.2276e-09 deg/d
Q 2.867186864478813 1.9536e-08 au
  Orbit Determination Parameters
   # obs. used (total)      1304  
   data-arc span      13228 days (36.22 yr)  
   first obs. used      1979-03-31  
   last obs. used      2015-06-18  
   planetary ephem.      DE431  
   SB-pert. ephem.      SB431-BIG16  
   condition code      0  
   fit RMS      .49374  
   data source      ORB  
   producer      Otto Matic  
   solution date      2015-Jul-06 12:26:33  

Additional Information
 Earth MOID = 1.61838 au 
 Jupiter MOID = 2.15984 au 
 T_jup = 3.347 
[ show covariance matrix ]

Ephemeris | Orbit Diagram | Orbital Elements | Physical Parameters | Discovery Circumstances | Close-Approach Data ]

Physical Parameter Table
Parameter Symbol Value Units Sigma Reference Notes
absolute magnitude H 13.2 mag n/a MPO279725  

20204 Yuudurunosato           Discovered 1997 Mar. 1 by T. Okuni at Nanyo.
Yuudurunosato is the nickname of Urushiyama, located in the western area of Nanyo city. The nickname is derived from the famous folk tale Yuuduru.
NOTE: some special characters may not display properly (any characters within {} are an attempt to place the proper accent above a character)
Reference: 20050523/MPCPages.arcLast Updated: 2005-07-21

[ show close-approach data ]
Alternate Designations
 1997 EV25 = 1979 FQ3 = 1999 TR93 
Ephemeris | Orbit Diagram | Orbital Elements | Physical Parameters | Discovery Circumstances | Close-Approach Data ]
ABOUT SSD CREDITS/AWARDS PRIVACY/COPYRIGHT GLOSSARY LINKS
FirstGov 2016-Feb-11 21:15 UT
(server date/time)  
NASA Home Page
Site Manager:   Ryan S. Park
Webmaster  Alan B. Chamberlin